This demonstration page uses our WeatherBlox Daily Observations layout. Learn more.

39.92423, -83.80882

Hourly Observations for December 15, 2019

Temp ( °F °C ) Dew Point ( °F °C ) Humidity (%) Winds ( mph kmh ) Pressure ( in mb ) Visibility ( mi km ) Precip ( " mm )
12:43 am 00:43 Cloudy with Light Wintry Mix 34 1 32 0 93 93 W 20 31 29.86 1011 3 4.82802 0.001 0.001
12:56 am 00:56 Cloudy with Light Wintry Mix 33 0.6 32 0 96 96 W 15 24 29.85 1011 5 8.0467 0.001 0.001
1:47 am 01:47 Cloudy 30 -1 28 -2 93 93 W 21 33 29.89 1012 10 16.0934 0.001 0.001
1:56 am 01:56 Cloudy 31 -0.6 28 -2.2 89 89 W 17 28 29.86 1011 10 16.0934 0.001 0.001
2:03 am 02:03 Cloudy 30 -1 28 -2 93 93 W 18 30 29.9 1012 10 16.0934 0 0
2:22 am 02:22 Cloudy 30 -1 27 -3 86 86 W 14 22 29.92 1013 10 16.0934 0 0
2:56 am 02:56 Cloudy 30 -1.1 26 -3.3 85 85 W 22 35 29.91 1013 10 16.0934 0 0
3:56 am 03:56 Cloudy 30 -1.1 26 -3.3 85 85 W 12 19 29.94 1014 10 16.0934 0 0
4:56 am 04:56 Cloudy 30 -1.1 25 -3.9 82 82 W 14 22 29.96 1015 10 16.0934 0 0
5:56 am 05:56 Cloudy 30 -1.1 25 -3.9 82 82 W 15 24 30 1016 10 16.0934 0 0
6:56 am 06:56 Cloudy 29 -1.7 24 -4.4 82 82 W 15 24 30.04 1017 10 16.0934 0 0
7:56 am 07:56 Cloudy 28 -2.2 23 -5 81 81 W 16 26 30.08 1019 10 16.0934 0 0
8:56 am 08:56 Cloudy 29 -1.7 24 -4.4 82 82 W 7 11 30.1 1019 10 16.0934 0 0
9:56 am 09:56 Cloudy 29 -1.7 23 -5 78 78 W 12 19 30.12 1020 10 16.0934 0 0
10:56 am 10:56 Cloudy 30 -1.1 23 -5 75 75 WSW 13 20 30.16 1021 10 16.0934 0 0
11:48 am 11:48 Partly Cloudy 30 -1 23 -5 75 75 WNW 8 13 30.18 1022 10 16.0934 0 0
11:56 am 11:56 Mostly Sunny 30 -1.1 22 -5.6 72 72 W 9 15 30.15 1021 10 16.0934 0 0
12:16 pm 12:16 Mostly Cloudy 32 0 23 -5 69 69 NW 8 13 30.17 1022 10 16.0934 0 0
12:56 pm 12:56 Mostly Cloudy 32 0 24 -4.4 73 73 WSW 9 15 30.16 1021 10 16.0934 0 0
1:15 pm 13:15 Partly Cloudy 34 1 23 -5 65 65 WSW 8 13 30.16 1021 10 16.0934 0 0
1:24 pm 13:24 Mostly Cloudy 34 1 23 -5 65 65 VRB 7 11 30.16 1021 10 16.0934 0 0
1:52 pm 13:52 Mostly Sunny 34 1 21 -6 60 60 W 5 7 30.16 1021 10 16.0934 0 0
1:56 pm 13:56 Mostly Sunny 33 0.6 21 -6.1 61 61 W 7 11 30.14 1021 10 16.0934 0 0
2:56 pm 14:56 Mostly Sunny 33 0.6 23 -5 66 66 W 9 15 30.16 1021 10 16.0934 0 0
3:56 pm 15:56 Cloudy 32 0 23 -5 69 69 W 3 6 30.16 1021 10 16.0934 0 0
4:56 pm 16:56 Cloudy 32 0 23 -5 69 69 Calm 30.16 1021 10 16.0934 0 0
5:56 pm 17:56 Cloudy 31 -0.6 26 -3.3 82 82 Calm 30.17 1022 10 16.0934 0 0
6:56 pm 18:56 Cloudy 31 -0.6 26 -3.3 82 82 ENE 3 6 30.18 1022 10 16.0934 0 0
7:56 pm 19:56 Cloudy with Light Snow 31 -0.6 28 -2.2 89 89 SE 8 13 30.15 1021 3 4.82802 0.001 0.001
8:03 pm 20:03 Cloudy with Light Snow 30 -1 28 -2 93 93 SE 7 11 30.17 1022 2 3.21868 0.001 0.001
8:08 pm 20:08 Cloudy with Light Snow 30 -1 28 -2 93 93 SE 7 11 30.18 1022 1.5 2.41401 0.001 0.001
8:23 pm 20:23 Cloudy with Light Snow 30 -1 30 -1 100 100 SE 7 11 30.17 1022 1.25 2.011675 0.001 0.001
8:35 pm 20:35 Cloudy with Light Snow 30 -1 30 -1 100 100 SE 6 9 30.18 1022 1 1.60934 0.001 0.001
8:54 pm 20:54 Cloudy with Light Snow 30 -1 30 -1 100 100 SE 7 11 30.17 1022 1.5 2.41401 0.001 0.001
8:56 pm 20:56 Cloudy with Light Snow 30 -1.1 30 -1.1 100 100 SE 7 11 30.15 1021 1.5 2.41401 0.001 0.001
9:11 pm 21:11 Cloudy with Light Snow 30 -1 30 -1 100 100 ESE 7 11 30.16 1021 1 1.60934 0.001 0.001
9:16 pm 21:16 Cloudy with Light Snow 30 -1 30 -1 100 100 ESE 6 9 30.15 1021 1.25 2.011675 0.001 0.001
9:19 pm 21:19 Cloudy with Light Snow 30 -1 30 -1 100 100 E 6 9 30.15 1021 0.75 1.207005 0.001 0.001
9:22 pm 21:22 Cloudy with Snow 30 -1 30 -1 100 100 E 8 13 30.15 1021 0.5 0.80467 0.001 0.001
9:33 pm 21:33 Cloudy with Light Snow 30 -1 30 -1 100 100 ESE 6 9 30.16 1021 0.75 1.207005 0.001 0.001
9:43 pm 21:43 Cloudy with Light Snow 30 -1 30 -1 100 100 E 8 13 30.15 1021 1 1.60934 0.001 0.001
9:56 pm 21:56 Cloudy with Light Snow 30 -1.1 30 -1.1 100 100 ESE 9 15 30.14 1021 1.25 2.011675 0.001 0.001
10:09 pm 22:09 Cloudy with Light Snow 30 -1 30 -1 100 100 E 9 15 30.14 1021 2 3.21868 0.001 0.001
10:25 pm 22:25 Cloudy with Light Snow 30 -1 30 -1 100 100 E 5 7 30.17 1022 1.5 2.41401 0.001 0.001
10:47 pm 22:47 Cloudy with Light Snow 28 -2 28 -2 100 100 E 8 13 30.15 1021 1.25 2.011675 0.001 0.001
10:56 pm 22:56 Cloudy with Light Snow 29 -1.7 29 -1.7 100 100 E 10 17 30.11 1020 1 1.60934 0.001 0.001
11:07 pm 23:07 Cloudy with Light Snow 28 -2 28 -2 100 100 E 9 15 30.14 1021 0.75 1.207005 0.001 0.001
11:12 pm 23:12 Cloudy with Light Snow 28 -2 28 -2 100 100 E 9 15 30.13 1020 1 1.60934 0.001 0.001
11:23 pm 23:23 Cloudy with Light Snow 28 -2 28 -2 100 100 E 10 17 30.13 1020 1.25 2.011675 0.001 0.001
11:34 pm 23:34 Cloudy with Light Snow 28 -2 28 -2 100 100 E 9 15 30.12 1020 2 3.21868 0.001 0.001
11:37 pm 23:37 Cloudy with Light Snow 28 -2 28 -2 100 100 E 9 15 30.13 1020 1.75 2.816345 0.001 0.001
11:43 pm 23:43 Cloudy with Light Snow 28 -2 28 -2 100 100 E 10 17 30.12 1020 0.75 1.207005 0.001 0.001
11:56 pm 23:56 Cloudy with Light Snow 29 -1.7 29 -1.7 100 100 E 8 13 30.1 1019 0.75 1.207005 0.001 0.001

Powered by AerisWeather